TimePST,TemperatureF,Dew PointF,Humidity,Sea Level PressureIn,VisibilityMPH,Wind Direction,Wind SpeedMPH,Gust SpeedMPH,PrecipitationIn,Events,Conditions,WindDirDegrees,DateUTC
12:15 AM,15.8,10.4,79,30.27,10.0,SSW,5.8,-,N/A,,Clear,200,2013-11-24 08:15:00
12:35 AM,15.8,10.4,79,30.27,10.0,WSW,3.5,-,N/A,,Clear,240,2013-11-24 08:35:00
12:55 AM,12.2,8.6,85,30.26,10.0,Calm,Calm,-,N/A,,Clear,0,2013-11-24 08:55:00
1:15 AM,14.0,10.4,86,30.26,10.0,Calm,Calm,-,N/A,,Clear,0,2013-11-24 09:15:00
1:35 AM,14.0,8.6,79,30.25,10.0,Calm,Calm,-,N/A,,Clear,0,2013-11-24 09:35:00
1:55 AM,14.0,10.4,86,30.26,10.0,Calm,Calm,-,N/A,,Clear,0,2013-11-24 09:55:00
2:15 AM,14.0,10.4,86,30.26,10.0,Calm,Calm,-,N/A,,Clear,0,2013-11-24 10:15:00
2:35 AM,15.8,10.4,79,30.26,10.0,Calm,Calm,-,N/A,,Clear,0,2013-11-24 10:35:00
2:55 AM,14.0,10.4,86,30.26,10.0,Calm,Calm,-,N/A,,Clear,0,2013-11-24 10:55:00
3:15 AM,14.0,8.6,79,30.26,10.0,Calm,Calm,-,N/A,,Clear,0,2013-11-24 11:15:00
3:35 AM,14.0,10.4,86,30.25,10.0,Calm,Calm,-,N/A,,Clear,0,2013-11-24 11:35:00
3:55 AM,14.0,10.4,86,30.25,10.0,Calm,Calm,-,N/A,,Clear,0,2013-11-24 11:55:00
4:15 AM,14.0,10.4,86,30.25,10.0,Calm,Calm,-,N/A,,Clear,0,2013-11-24 12:15:00
4:35 AM,15.8,10.4,79,30.24,10.0,SSW,5.8,-,N/A,,Clear,210,2013-11-24 12:35:00
4:55 AM,17.6,12.2,79,30.24,10.0,SSW,5.8,-,N/A,,Clear,200,2013-11-24 12:55:00
5:15 AM,14.0,10.4,86,30.25,10.0,Calm,Calm,-,N/A,,Clear,0,2013-11-24 13:15:00
5:35 AM,10.4,8.6,92,30.25,10.0,Calm,Calm,-,N/A,,Clear,0,2013-11-24 13:35:00
5:55 AM,10.4,6.8,85,30.24,10.0,Calm,Calm,-,N/A,,Clear,0,2013-11-24 13:55:00
6:15 AM,10.4,6.8,85,30.25,10.0,Calm,Calm,-,N/A,,Clear,0,2013-11-24 14:15:00
6:35 AM,14.0,10.4,86,30.25,10.0,South,5.8,-,N/A,,Clear,190,2013-11-24 14:35:00
6:55 AM,14.0,10.4,86,30.24,10.0,South,5.8,-,N/A,,Clear,180,2013-11-24 14:55:00
7:15 AM,15.8,10.4,79,30.24,10.0,South,4.6,-,N/A,,Clear,170,2013-11-24 15:15:00
7:35 AM,17.6,10.4,73,30.24,10.0,ESE,6.9,-,N/A,,Clear,120,2013-11-24 15:35:00
7:55 AM,23.0,14.0,68,30.24,10.0,SE,6.9,-,N/A,,Clear,130,2013-11-24 15:55:00
8:15 AM,23.0,14.0,68,30.25,10.0,SE,5.8,-,N/A,,Clear,130,2013-11-24 16:15:00
8:35 AM,24.8,14.0,64,30.25,10.0,SE,6.9,-,N/A,,Clear,130,2013-11-24 16:35:00
8:55 AM,28.4,14.0,55,30.25,10.0,ESE,6.9,-,N/A,,Clear,120,2013-11-24 16:55:00
9:15 AM,30.2,14.0,51,30.25,10.0,SE,5.8,-,N/A,,Clear,130,2013-11-24 17:15:00
9:35 AM,32.0,14.0,48,30.25,10.0,ESE,3.5,-,N/A,,Clear,110,2013-11-24 17:35:00
9:55 AM,33.8,14.0,44,30.25,10.0,Calm,Calm,-,N/A,,Clear,0,2013-11-24 17:55:00
10:15 AM,37.4,15.8,41,30.25,10.0,ESE,3.5,-,N/A,,Clear,120,2013-11-24 18:15:00
10:35 AM,39.2,15.8,39,30.24,10.0,SE,5.8,-,N/A,,Clear,130,2013-11-24 18:35:00
10:55 AM,41.0,15.8,36,30.24,10.0,SE,6.9,-,N/A,,Clear,130,2013-11-24 18:55:00
11:15 AM,44.6,14.0,29,30.23,10.0,SE,5.8,-,N/A,,Clear,130,2013-11-24 19:15:00
11:35 AM,46.4,14.0,27,30.22,10.0,SSE,6.9,-,N/A,,Clear,150,2013-11-24 19:35:00
11:55 AM,48.2,14.0,25,30.21,10.0,SE,5.8,-,N/A,,Clear,140,2013-11-24 19:55:00
12:15 PM,48.2,14.0,25,30.21,10.0,Calm,Calm,-,N/A,,Clear,0,2013-11-24 20:15:00
12:35 PM,50.0,14.0,24,30.20,10.0,Calm,Calm,-,N/A,,Clear,0,2013-11-24 20:35:00
12:55 PM,51.8,14.0,22,30.20,10.0,Calm,Calm,-,N/A,,Clear,0,2013-11-24 20:55:00
1:15 PM,53.6,14.0,21,30.20,10.0,SE,4.6,-,N/A,,Clear,130,2013-11-24 21:15:00
1:35 PM,55.4,14.0,20,30.19,10.0,Calm,Calm,-,N/A,,Clear,0,2013-11-24 21:35:00
1:55 PM,55.4,14.0,20,30.19,10.0,Calm,Calm,-,N/A,,Clear,0,2013-11-24 21:55:00
2:15 PM,57.2,14.0,18,30.20,10.0,Calm,Calm,-,N/A,,Clear,0,2013-11-24 22:15:00
2:35 PM,55.4,14.0,20,30.19,9.0,Calm,Calm,-,N/A,,Clear,0,2013-11-24 22:35:00
2:55 PM,55.4,14.0,20,30.20,10.0,Calm,Calm,-,N/A,,Clear,0,2013-11-24 22:55:00
3:15 PM,57.2,12.2,17,30.20,10.0,Calm,Calm,-,N/A,,Clear,0,2013-11-24 23:15:00
3:35 PM,55.4,12.2,18,30.20,10.0,Calm,Calm,-,N/A,,Clear,0,2013-11-24 23:35:00
3:55 PM,53.6,10.4,18,30.20,10.0,North,3.5,-,N/A,,Clear,10,2013-11-24 23:55:00
4:15 PM,50.0,17.6,28,30.21,10.0,Calm,Calm,-,N/A,,Clear,0,2013-11-25 00:15:00
4:35 PM,46.4,15.8,29,30.21,10.0,Calm,Calm,-,N/A,,Clear,0,2013-11-25 00:35:00
4:55 PM,41.0,15.8,36,30.22,10.0,NNW,5.8,-,N/A,,Clear,340,2013-11-25 00:55:00
5:15 PM,39.2,17.6,42,30.23,10.0,Calm,Calm,-,N/A,,Clear,0,2013-11-25 01:15:00
5:35 PM,37.4,17.6,45,30.23,10.0,Calm,Calm,-,N/A,,Clear,0,2013-11-25 01:35:00
5:55 PM,33.8,15.8,48,30.25,10.0,Calm,Calm,-,N/A,,Clear,0,2013-11-25 01:55:00
6:15 PM,32.0,15.8,51,30.25,10.0,Calm,Calm,-,N/A,,Clear,0,2013-11-25 02:15:00
6:35 PM,28.4,15.8,59,30.26,10.0,Calm,Calm,-,N/A,,Clear,0,2013-11-25 02:35:00
6:55 PM,28.4,17.6,64,30.26,10.0,Calm,Calm,-,N/A,,Clear,0,2013-11-25 02:55:00
7:15 PM,28.4,15.8,59,30.27,10.0,Calm,Calm,-,N/A,,Clear,0,2013-11-25 03:15:00
7:35 PM,26.6,15.8,64,30.28,10.0,Calm,Calm,-,N/A,,Clear,0,2013-11-25 03:35:00
7:55 PM,26.6,15.8,64,30.28,10.0,Calm,Calm,-,N/A,,Clear,0,2013-11-25 03:55:00
8:15 PM,26.6,15.8,64,30.29,10.0,Calm,Calm,-,N/A,,Clear,0,2013-11-25 04:15:00
8:35 PM,26.6,15.8,64,30.29,10.0,SSW,4.6,-,N/A,,Clear,200,2013-11-25 04:35:00
8:55 PM,28.4,15.8,59,30.29,10.0,Calm,Calm,-,N/A,,Clear,0,2013-11-25 04:55:00
9:15 PM,28.4,17.6,64,30.29,10.0,Calm,Calm,-,N/A,,Clear,0,2013-11-25 05:15:00
9:35 PM,26.6,15.8,64,30.29,10.0,Calm,Calm,-,N/A,,Clear,0,2013-11-25 05:35:00
9:55 PM,26.6,15.8,64,30.30,10.0,Calm,Calm,-,N/A,,Clear,0,2013-11-25 05:55:00
10:15 PM,24.8,15.8,69,30.29,10.0,SSW,4.6,-,N/A,,Clear,200,2013-11-25 06:15:00
10:35 PM,24.8,15.8,69,30.30,10.0,SSW,3.5,-,N/A,,Clear,210,2013-11-25 06:35:00
10:55 PM,23.0,15.8,74,30.30,10.0,Calm,Calm,-,N/A,,Clear,0,2013-11-25 06:55:00
11:15 PM,23.0,15.8,74,30.30,10.0,SSE,3.5,-,N/A,,Clear,160,2013-11-25 07:15:00
11:35 PM,21.2,14.0,74,30.30,10.0,Calm,Calm,-,N/A,,Clear,0,2013-11-25 07:35:00
11:55 PM,21.2,15.8,80,30.31,10.0,Calm,Calm,-,N/A,,Clear,0,2013-11-25 07:55:00